Wetterdaten: Samstag, 11.12.2010
Datum Zeit Temp. A. Feuchte A. Luftdruck Regen Wind Richtung Richtung Sonnenschein UV Solar Windben
11.12.2010 00:00 3,2 C 93 % 1019,0 hPa 0,5 mm 8,0 km/h (2 Bft) W-SW 247 0 min 0 UV-I 0 W/m 24,1 km/h (4 Bft)
11.12.2010 00:10 3,2 C 93 % 1018,7 hPa 0,5 mm 9,7 km/h (2 Bft) W-SW 247 0 min 0 UV-I 0 W/m 25,7 km/h (4 Bft)
11.12.2010 00:20 3,3 C 93 % 1018,4 hPa 0,3 mm 8,0 km/h (2 Bft) W-SW 247 0 min 0 UV-I 0 W/m 24,1 km/h (4 Bft)
11.12.2010 00:30 3,3 C 93 % 1018,4 hPa 0,3 mm 8,0 km/h (2 Bft) W-SW 247 0 min 0 UV-I 0 W/m 20,9 km/h (4 Bft)
11.12.2010 00:40 3,3 C 93 % 1018,3 hPa 0,3 mm 8,0 km/h (2 Bft) SW 225 0 min 0 UV-I 0 W/m 22,5 km/h (4 Bft)
11.12.2010 00:50 3,3 C 93 % 1018,0 hPa 0,3 mm 6,4 km/h (2 Bft) W-SW 247 0 min 0 UV-I 0 W/m 17,7 km/h (3 Bft)
11.12.2010 01:00 3,3 C 93 % 1017,9 hPa 0,0 mm 8,0 km/h (2 Bft) W-SW 247 0 min 0 UV-I 0 W/m 20,9 km/h (4 Bft)
11.12.2010 01:10 3,3 C 93 % 1017,6 hPa 0,3 mm 6,4 km/h (2 Bft) W-SW 247 0 min 0 UV-I 0 W/m 20,9 km/h (4 Bft)
11.12.2010 01:20 3,4 C 93 % 1017,3 hPa 0,3 mm 6,4 km/h (2 Bft) W-SW 247 0 min 0 UV-I 0 W/m 22,5 km/h (4 Bft)
11.12.2010 01:30 3,4 C 93 % 1017,2 hPa 0,3 mm 8,0 km/h (2 Bft) W-SW 247 0 min 0 UV-I 0 W/m 24,1 km/h (4 Bft)
11.12.2010 01:40 3,4 C 93 % 1017,1 hPa 0,3 mm 6,4 km/h (2 Bft) W 270 0 min 0 UV-I 0 W/m 19,3 km/h (3 Bft)
11.12.2010 01:50 3,4 C 93 % 1016,9 hPa 0,3 mm 8,0 km/h (2 Bft) W-SW 247 0 min 0 UV-I 0 W/m 22,5 km/h (4 Bft)
11.12.2010 02:00 3,4 C 93 % 1016,9 hPa 0,0 mm 9,7 km/h (2 Bft) W 270 0 min 0 UV-I 0 W/m 22,5 km/h (4 Bft)
11.12.2010 02:10 3,4 C 93 % 1017,0 hPa 0,3 mm 9,7 km/h (2 Bft) W-SW 247 0 min 0 UV-I 0 W/m 22,5 km/h (4 Bft)
11.12.2010 02:20 3,5 C 93 % 1016,9 hPa 0,0 mm 9,7 km/h (2 Bft) W-SW 247 0 min 0 UV-I 0 W/m 30,6 km/h (5 Bft)
11.12.2010 02:30 3,5 C 93 % 1016,8 hPa 0,3 mm 9,7 km/h (2 Bft) W-SW 247 0 min 0 UV-I 0 W/m 24,1 km/h (4 Bft)
11.12.2010 02:40 3,6 C 93 % 1016,8 hPa 0,3 mm 8,0 km/h (2 Bft) SW 225 0 min 0 UV-I 0 W/m 27,4 km/h (4 Bft)
11.12.2010 02:50 3,6 C 94 % 1016,6 hPa 0,3 mm 11,3 km/h (2 Bft) W-SW 247 0 min 0 UV-I 0 W/m 25,7 km/h (4 Bft)
11.12.2010 03:00 3,7 C 94 % 1016,6 hPa 0,3 mm 12,9 km/h (3 Bft) W-SW 247 0 min 0 UV-I 0 W/m 27,4 km/h (4 Bft)
11.12.2010 03:10 3,7 C 94 % 1016,4 hPa 0,0 mm 8,0 km/h (2 Bft) W-SW 247 0 min 0 UV-I 0 W/m 27,4 km/h (4 Bft)
11.12.2010 03:20 3,7 C 94 % 1016,4 hPa 0,3 mm 9,7 km/h (2 Bft) W-SW 247 0 min 0 UV-I 0 W/m 25,7 km/h (4 Bft)
11.12.2010 03:30 3,7 C 94 % 1016,3 hPa 0,3 mm 11,3 km/h (2 Bft) W-SW 247 0 min 0 UV-I 0 W/m 22,5 km/h (4 Bft)
11.12.2010 03:40 3,8 C 94 % 1016,3 hPa 0,0 mm 9,7 km/h (2 Bft) W 270 0 min 0 UV-I 0 W/m 24,1 km/h (4 Bft)
11.12.2010 03:50 3,8 C 94 % 1016,1 hPa 0,3 mm 11,3 km/h (2 Bft) W-SW 247 0 min 0 UV-I 0 W/m 25,7 km/h (4 Bft)
11.12.2010 04:00 3,8 C 94 % 1016,1 hPa 0,0 mm 11,3 km/h (2 Bft) W-SW 247 0 min 0 UV-I 0 W/m 29,0 km/h (5 Bft)
11.12.2010 04:10 3,9 C 94 % 1016,1 hPa 0,0 mm 11,3 km/h (2 Bft) W-SW 247 0 min 0 UV-I 0 W/m 29,0 km/h (5 Bft)
11.12.2010 04:20 3,9 C 94 % 1016,2 hPa 0,0 mm 11,3 km/h (2 Bft) W-SW 247 0 min 0 UV-I 0 W/m 24,1 km/h (4 Bft)
11.12.2010 04:30 4,0 C 94 % 1016,2 hPa 0,3 mm 9,7 km/h (2 Bft) W 270 0 min 0 UV-I 0 W/m 25,7 km/h (4 Bft)
11.12.2010 04:40 4,1 C 94 % 1016,0 hPa 0,0 mm 11,3 km/h (2 Bft) W 270 0 min 0 UV-I 0 W/m 27,4 km/h (4 Bft)
11.12.2010 04:50 4,2 C 94 % 1015,9 hPa 0,0 mm 9,7 km/h (2 Bft) W 270 0 min 0 UV-I 0 W/m 22,5 km/h (4 Bft)
11.12.2010 05:00 4,2 C 94 % 1015,9 hPa 0,3 mm 11,3 km/h (2 Bft) W-SW 247 0 min 0 UV-I 0 W/m 25,7 km/h (4 Bft)
11.12.2010 05:10 4,2 C 94 % 1015,8 hPa 0,0 mm 11,3 km/h (2 Bft) W-SW 247 0 min 0 UV-I 0 W/m 27,4 km/h (4 Bft)
11.12.2010 05:20 4,2 C 94 % 1015,8 hPa 0,0 mm 11,3 km/h (2 Bft) W-SW 247 0 min 0 UV-I 0 W/m 25,7 km/h (4 Bft)
11.12.2010 05:30 4,3 C 94 % 1015,9 hPa 0,3 mm 9,7 km/h (2 Bft) W 270 0 min 0 UV-I 0 W/m 29,0 km/h (5 Bft)
11.12.2010 05:40 4,3 C 94 % 1015,8 hPa 0,0 mm 9,7 km/h (2 Bft) W-SW 247 0 min 0 UV-I 0 W/m 30,6 km/h (5 Bft)
11.12.2010 05:50 4,4 C 94 % 1015,6 hPa 0,0 mm 11,3 km/h (2 Bft) W 270 0 min 0 UV-I 0 W/m 32,2 km/h (5 Bft)
11.12.2010 06:00 4,4 C 94 % 1015,7 hPa 0,0 mm 9,7 km/h (2 Bft) W 270 0 min 0 UV-I 0 W/m 32,2 km/h (5 Bft)
11.12.2010 06:10 4,5 C 94 % 1015,4 hPa 0,0 mm 11,3 km/h (2 Bft) W-SW 247 0 min 0 UV-I 0 W/m 27,4 km/h (4 Bft)
11.12.2010 06:20 4,6 C 94 % 1015,3 hPa 0,0 mm 12,9 km/h (3 Bft) W-SW 247 0 min 0 UV-I 0 W/m 29,0 km/h (5 Bft)
11.12.2010 06:30 4,6 C 94 % 1015,5 hPa 0,0 mm 11,3 km/h (2 Bft) W 270 0 min 0 UV-I 0 W/m 30,6 km/h (5 Bft)
11.12.2010 06:40 4,6 C 94 % 1015,5 hPa 0,3 mm 12,9 km/h (3 Bft) W-SW 247 0 min 0 UV-I 0 W/m 29,0 km/h (5 Bft)
11.12.2010 06:50 4,6 C 94 % 1015,2 hPa 0,0 mm 11,3 km/h (2 Bft) W-SW 247 0 min 0 UV-I 0 W/m 30,6 km/h (5 Bft)
11.12.2010 07:00 4,7 C 94 % 1015,4 hPa 0,0 mm 11,3 km/h (2 Bft) SW 225 0 min 0 UV-I 0 W/m 30,6 km/h (5 Bft)
11.12.2010 07:10 4,7 C 94 % 1015,6 hPa 0,0 mm 11,3 km/h (2 Bft) W-SW 247 0 min 0 UV-I 0 W/m 29,0 km/h (5 Bft)
11.12.2010 07:20 4,7 C 94 % 1015,6 hPa 0,0 mm 11,3 km/h (2 Bft) W 270 0 min 0 UV-I 0 W/m 29,0 km/h (5 Bft)
11.12.2010 07:30 4,8 C 94 % 1015,6 hPa 0,3 mm 12,9 km/h (3 Bft) W-SW 247 0 min 0 UV-I 0 W/m 29,0 km/h (5 Bft)
11.12.2010 07:40 4,8 C 94 % 1015,6 hPa 0,0 mm 11,3 km/h (2 Bft) W 270 0 min 0 UV-I 0 W/m 29,0 km/h (5 Bft)
11.12.2010 07:50 4,8 C 94 % 1015,7 hPa 0,0 mm 8,0 km/h (2 Bft) W-SW 247 0 min 0 UV-I 0 W/m 22,5 km/h (4 Bft)
11.12.2010 08:00 4,8 C 94 % 1015,9 hPa 0,0 mm 9,5 km/h (2 Bft) W 265 0 min 0 UV-I 0 W/m 19,3 km/h (3 Bft)
11.12.2010 08:10 4,8 C 94 % 1016,0 hPa 0,0 mm 11,3 km/h (2 Bft) W 270 0 min 0 UV-I 0 W/m 27,4 km/h (4 Bft)
11.12.2010 08:20 4,8 C 94 % 1016,2 hPa 0,3 mm 9,7 km/h (2 Bft) W 270 0 min 0 UV-I 0 W/m 25,7 km/h (4 Bft)
11.12.2010 08:30 4,8 C 94 % 1015,9 hPa 0,0 mm 9,7 km/h (2 Bft) W 270 0 min 0 UV-I 0 W/m 32,2 km/h (5 Bft)
11.12.2010 08:40 4,8 C 94 % 1016,0 hPa 0,0 mm 9,7 km/h (2 Bft) W 270 0 min 0 UV-I 0 W/m 22,5 km/h (4 Bft)
11.12.2010 08:50 4,8 C 94 % 1015,8 hPa 0,0 mm 11,0 km/h (2 Bft) W 271 0 min 0 UV-I 0 W/m 27,4 km/h (4 Bft)
11.12.2010 09:00 4,8 C 94 % 1015,6 hPa 0,0 mm 9,9 km/h (2 Bft) W 261 0 min 0 UV-I 4 W/m 25,7 km/h (4 Bft)
11.12.2010 09:10 4,8 C 94 % 1015,5 hPa 0,0 mm 12,4 km/h (3 Bft) W-SW 240 0 min 0 UV-I 13 W/m 27,4 km/h (4 Bft)
11.12.2010 09:20 4,9 C 94 % 1015,5 hPa 0,0 mm 11,4 km/h (2 Bft) NW 304 0 min 0 UV-I 11 W/m 32,2 km/h (5 Bft)
11.12.2010 09:30 4,9 C 94 % 1015,4 hPa 0,0 mm 8,1 km/h (2 Bft) W 277 0 min 0 UV-I 12 W/m 22,5 km/h (4 Bft)
11.12.2010 09:40 4,9 C 94 % 1015,2 hPa 0,0 mm 11,5 km/h (2 Bft) W 279 0 min 0 UV-I 14 W/m 29,0 km/h (5 Bft)
11.12.2010 09:50 4,9 C 94 % 1015,3 hPa 0,0 mm 11,9 km/h (2 Bft) W 269 0 min 0 UV-I 16 W/m 27,4 km/h (4 Bft)
11.12.2010 10:00 4,9 C 94 % 1015,2 hPa 0,0 mm 9,0 km/h (2 Bft) W-SW 246 0 min 0 UV-I 19 W/m 25,7 km/h (4 Bft)
11.12.2010 10:10 5,0 C 94 % 1015,0 hPa 0,0 mm 8,5 km/h (2 Bft) W-SW 252 0 min 0 UV-I 17 W/m 29,0 km/h (5 Bft)
11.12.2010 10:20 5,0 C 94 % 1015,3 hPa 0,3 mm 10,6 km/h (2 Bft) W 275 0 min 0 UV-I 17 W/m 27,4 km/h (4 Bft)
11.12.2010 10:30 5,0 C 94 % 1014,9 hPa 0,0 mm 12,1 km/h (2 Bft) W-SW 248 0 min 0 UV-I 22 W/m 27,4 km/h (4 Bft)
11.12.2010 10:40 5,1 C 94 % 1014,9 hPa 0,0 mm 12,7 km/h (3 Bft) W-NW 293 0 min 0 UV-I 25 W/m 30,6 km/h (5 Bft)
11.12.2010 10:50 5,1 C 94 % 1015,0 hPa 0,0 mm 11,6 km/h (2 Bft) W-SW 240 0 min 0 UV-I 40 W/m 29,0 km/h (5 Bft)
11.12.2010 11:00 5,1 C 94 % 1015,0 hPa 0,3 mm 12,7 km/h (3 Bft) W 273 0 min 0 UV-I 34 W/m 29,0 km/h (5 Bft)
11.12.2010 11:10 5,2 C 95 % 1015,0 hPa 0,0 mm 14,9 km/h (3 Bft) W-NW 290 0 min 0 UV-I 35 W/m 29,0 km/h (5 Bft)
11.12.2010 11:20 5,2 C 94 % 1015,2 hPa 0,0 mm 10,6 km/h (2 Bft) W 263 0 min 0 UV-I 32 W/m 25,7 km/h (4 Bft)
11.12.2010 11:30 5,2 C 94 % 1015,1 hPa 0,0 mm 9,2 km/h (2 Bft) W 268 0 min 0 UV-I 38 W/m 27,4 km/h (4 Bft)
11.12.2010 11:40 5,2 C 94 % 1015,1 hPa 0,0 mm 10,8 km/h (2 Bft) W-SW 244 0 min 0 UV-I 49 W/m 30,6 km/h (5 Bft)
11.12.2010 11:50 5,3 C 94 % 1015,0 hPa 0,0 mm 12,9 km/h (3 Bft) W-SW 256 0 min 0 UV-I 52 W/m 33,8 km/h (5 Bft)
11.12.2010 12:00 5,3 C 94 % 1015,1 hPa 0,0 mm 13,7 km/h (3 Bft) W-SW 251 0 min 0 UV-I 38 W/m 29,0 km/h (5 Bft)
11.12.2010 12:10 5,3 C 94 % 1015,2 hPa 0,3 mm 13,4 km/h (3 Bft) W-NW 283 0 min 0 UV-I 26 W/m 27,4 km/h (4 Bft)
11.12.2010 12:20 5,3 C 94 % 1015,3 hPa 0,0 mm 10,0 km/h (2 Bft) W-SW 244 0 min 0 UV-I 23 W/m 25,7 km/h (4 Bft)
11.12.2010 12:30 5,4 C 94 % 1015,2 hPa 0,0 mm 9,7 km/h (2 Bft) SW 214 0 min 0 UV-I 24 W/m 24,1 km/h (4 Bft)
11.12.2010 12:40 5,4 C 94 % 1015,3 hPa 0,0 mm 12,0 km/h (2 Bft) W 267 0 min 0 UV-I 19 W/m 29,0 km/h (5 Bft)
11.12.2010 12:50 5,4 C 94 % 1015,2 hPa 0,0 mm 9,0 km/h (2 Bft) W 259 0 min 0 UV-I 25 W/m 24,1 km/h (4 Bft)
11.12.2010 13:00 5,4 C 94 % 1015,2 hPa 0,0 mm 10,8 km/h (2 Bft) S-SW 198 0 min 0 UV-I 25 W/m 25,7 km/h (4 Bft)
11.12.2010 13:10 5,4 C 94 % 1015,1 hPa 0,3 mm 9,4 km/h (2 Bft) W-SW 239 0 min 0 UV-I 26 W/m 27,4 km/h (4 Bft)
11.12.2010 13:20 5,4 C 94 % 1015,0 hPa 0,0 mm 12,3 km/h (3 Bft) SW 215 0 min 0 UV-I 25 W/m 27,4 km/h (4 Bft)
11.12.2010 13:30 5,4 C 94 % 1015,0 hPa 0,0 mm 13,0 km/h (3 Bft) W-SW 246 0 min 0 UV-I 21 W/m 33,8 km/h (5 Bft)
11.12.2010 13:40 5,4 C 94 % 1014,6 hPa 0,3 mm 13,1 km/h (3 Bft) W 277 0 min 0 UV-I 30 W/m 30,6 km/h (5 Bft)
11.12.2010 13:50 5,4 C 94 % 1014,6 hPa 0,0 mm 11,6 km/h (2 Bft) SW 225 0 min 0 UV-I 24 W/m 33,8 km/h (5 Bft)
11.12.2010 14:00 5,4 C 94 % 1014,7 hPa 0,0 mm 11,7 km/h (2 Bft) SW 227 0 min 0 UV-I 24 W/m 30,6 km/h (5 Bft)
11.12.2010 14:10 5,4 C 94 % 1014,4 hPa 0,3 mm 11,9 km/h (2 Bft) W 267 0 min 0 UV-I 26 W/m 29,0 km/h (5 Bft)
11.12.2010 14:20 5,4 C 94 % 1014,4 hPa 0,0 mm 10,2 km/h (2 Bft) W-NW 288 0 min 0 UV-I 18 W/m 27,4 km/h (4 Bft)
11.12.2010 14:30 5,4 C 94 % 1014,5 hPa 0,0 mm 12,1 km/h (2 Bft) W 281 0 min 0 UV-I 11 W/m 29,0 km/h (5 Bft)
11.12.2010 14:40 5,4 C 94 % 1014,6 hPa 0,0 mm 11,5 km/h (2 Bft) W 279 0 min 0 UV-I 11 W/m 25,7 km/h (4 Bft)
11.12.2010 14:50 5,4 C 94 % 1014,8 hPa 0,0 mm 10,8 km/h (2 Bft) W-SW 256 0 min 0 UV-I 10 W/m 25,7 km/h (4 Bft)
11.12.2010 15:00 5,4 C 94 % 1014,5 hPa 0,0 mm 9,6 km/h (2 Bft) W 261 0 min 0 UV-I 20 W/m 25,7 km/h (4 Bft)
11.12.2010 15:10 5,4 C 94 % 1014,6 hPa 0,0 mm 9,4 km/h (2 Bft) W-NW 291 0 min 0 UV-I 22 W/m 25,7 km/h (4 Bft)
11.12.2010 15:20 5,4 C 94 % 1014,9 hPa 0,0 mm 11,0 km/h (2 Bft) W-SW 240 0 min 0 UV-I 7 W/m 25,7 km/h (4 Bft)
11.12.2010 15:30 5,4 C 94 % 1015,0 hPa 0,0 mm 8,7 km/h (2 Bft) W-SW 256 0 min 0 UV-I 2 W/m 24,1 km/h (4 Bft)
11.12.2010 15:40 5,4 C 94 % 1015,0 hPa 0,0 mm 11,6 km/h (2 Bft) W 271 0 min 0 UV-I 0 W/m 29,0 km/h (5 Bft)
11.12.2010 15:50 5,5 C 94 % 1015,1 hPa 0,0 mm 11,9 km/h (2 Bft) NW 317 0 min 0 UV-I 0 W/m 25,7 km/h (4 Bft)
11.12.2010 16:00 5,5 C 94 % 1014,9 hPa 0,0 mm 10,3 km/h (2 Bft) SW 234 0 min 0 UV-I 0 W/m 24,1 km/h (4 Bft)
11.12.2010 16:10 5,5 C 94 % 1014,8 hPa 0,0 mm 10,6 km/h (2 Bft) W 260 0 min 0 UV-I 0 W/m 29,0 km/h (5 Bft)
11.12.2010 16:20 5,4 C 94 % 1014,7 hPa 0,0 mm 12,0 km/h (2 Bft) W-SW 257 0 min 0 UV-I 0 W/m 27,4 km/h (4 Bft)
11.12.2010 16:30 5,4 C 94 % 1014,7 hPa 0,0 mm 9,7 km/h (2 Bft) W 265 0 min 0 UV-I 0 W/m 24,1 km/h (4 Bft)
11.12.2010 16:40 5,3 C 94 % 1014,8 hPa 0,0 mm 9,6 km/h (2 Bft) W 276 0 min 0 UV-I 0 W/m 22,5 km/h (4 Bft)
11.12.2010 16:50 5,3 C 94 % 1014,5 hPa 0,0 mm 9,4 km/h (2 Bft) W 273 0 min 0 UV-I 0 W/m 22,5 km/h (4 Bft)
11.12.2010 17:00 5,3 C 94 % 1014,4 hPa 0,0 mm 8,2 km/h (2 Bft) W-SW 246 0 min 0 UV-I 0 W/m 20,9 km/h (4 Bft)
11.12.2010 17:10 5,3 C 94 % 1014,5 hPa 0,0 mm 9,2 km/h (2 Bft) SW 230 0 min 0 UV-I 0 W/m 20,9 km/h (4 Bft)
11.12.2010 17:20 5,4 C 94 % 1014,6 hPa 0,0 mm 6,8 km/h (2 Bft) W-NW 300 0 min 0 UV-I 0 W/m 20,9 km/h (4 Bft)
11.12.2010 17:30 5,4 C 94 % 1014,5 hPa 0,0 mm 7,6 km/h (2 Bft) SW 236 0 min 0 UV-I 0 W/m 16,1 km/h (3 Bft)
11.12.2010 17:40 5,4 C 94 % 1014,5 hPa 0,0 mm 9,8 km/h (2 Bft) W-SW 243 0 min 0 UV-I 0 W/m 25,7 km/h (4 Bft)
11.12.2010 17:50 5,3 C 94 % 1014,4 hPa 0,0 mm 9,8 km/h (2 Bft) W 276 0 min 0 UV-I 0 W/m 20,9 km/h (4 Bft)
11.12.2010 18:00 5,3 C 94 % 1014,5 hPa 0,0 mm 8,3 km/h (2 Bft) W-SW 253 0 min 0 UV-I 0 W/m 17,7 km/h (3 Bft)
11.12.2010 18:10 5,3 C 94 % 1014,3 hPa 0,0 mm 9,5 km/h (2 Bft) SW 223 0 min 0 UV-I 0 W/m 25,7 km/h (4 Bft)
11.12.2010 18:20 5,3 C 94 % 1014,4 hPa 0,0 mm 7,5 km/h (2 Bft) W-SW 252 0 min 0 UV-I 0 W/m 22,5 km/h (4 Bft)
11.12.2010 18:30 5,3 C 94 % 1014,5 hPa 0,0 mm 8,0 km/h (2 Bft) W 270 0 min 0 UV-I 0 W/m 20,9 km/h (4 Bft)
11.12.2010 18:40 5,3 C 94 % 1014,5 hPa 0,0 mm 8,0 km/h (2 Bft) W 270 0 min 0 UV-I 0 W/m 17,7 km/h (3 Bft)
11.12.2010 18:50 5,3 C 94 % 1014,4 hPa 0,0 mm 9,7 km/h (2 Bft) W-SW 247 0 min 0 UV-I 0 W/m 25,7 km/h (4 Bft)
11.12.2010 19:00 5,2 C 94 % 1014,3 hPa 0,0 mm 11,3 km/h (2 Bft) W 270 0 min 0 UV-I 0 W/m 24,1 km/h (4 Bft)
11.12.2010 19:10 5,2 C 94 % 1014,1 hPa 0,0 mm 9,7 km/h (2 Bft) W 270 0 min 0 UV-I 0 W/m 24,1 km/h (4 Bft)
11.12.2010 19:20 5,2 C 93 % 1014,1 hPa 0,0 mm 9,7 km/h (2 Bft) W-SW 247 0 min 0 UV-I 0 W/m 30,6 km/h (5 Bft)
11.12.2010 19:30 5,2 C 93 % 1013,9 hPa 0,0 mm 9,7 km/h (2 Bft) W 270 0 min 0 UV-I 0 W/m 27,4 km/h (4 Bft)
11.12.2010 19:40 5,2 C 93 % 1013,8 hPa 0,0 mm 9,7 km/h (2 Bft) W 270 0 min 0 UV-I 0 W/m 24,1 km/h (4 Bft)
11.12.2010 19:50 5,2 C 93 % 1013,8 hPa 0,0 mm 9,7 km/h (2 Bft) W 270 0 min 0 UV-I 0 W/m 25,7 km/h (4 Bft)
11.12.2010 20:00 5,2 C 93 % 1013,7 hPa 0,3 mm 9,7 km/h (2 Bft) W 270 0 min 0 UV-I 0 W/m 27,4 km/h (4 Bft)
11.12.2010 20:10 5,2 C 93 % 1013,3 hPa 0,0 mm 12,9 km/h (3 Bft) W 270 0 min 0 UV-I 0 W/m 30,6 km/h (5 Bft)
11.12.2010 20:20 5,2 C 93 % 1013,3 hPa 0,3 mm 11,3 km/h (2 Bft) W 270 0 min 0 UV-I 0 W/m 32,2 km/h (5 Bft)
11.12.2010 20:30 5,2 C 93 % 1013,2 hPa 0,0 mm 9,7 km/h (2 Bft) W 270 0 min 0 UV-I 0 W/m 25,7 km/h (4 Bft)
11.12.2010 20:40 5,2 C 93 % 1013,1 hPa 0,0 mm 11,3 km/h (2 Bft) W 270 0 min 0 UV-I 0 W/m 24,1 km/h (4 Bft)
11.12.2010 20:50 5,2 C 93 % 1013,1 hPa 0,0 mm 11,3 km/h (2 Bft) W 270 0 min 0 UV-I 0 W/m 27,4 km/h (4 Bft)
11.12.2010 21:00 5,1 C 92 % 1012,9 hPa 0,0 mm 9,7 km/h (2 Bft) W 270 0 min 0 UV-I 0 W/m 29,0 km/h (5 Bft)
11.12.2010 21:10 5,1 C 92 % 1012,7 hPa 0,0 mm 9,7 km/h (2 Bft) W 270 0 min 0 UV-I 0 W/m 24,1 km/h (4 Bft)
11.12.2010 21:20 5,1 C 92 % 1012,6 hPa 0,0 mm 11,3 km/h (2 Bft) W 270 0 min 0 UV-I 0 W/m 25,7 km/h (4 Bft)
11.12.2010 21:30 5,0 C 92 % 1012,5 hPa 0,0 mm 11,3 km/h (2 Bft) W 270 0 min 0 UV-I 0 W/m 29,0 km/h (5 Bft)
11.12.2010 21:40 5,0 C 92 % 1012,5 hPa 0,0 mm 11,3 km/h (2 Bft) W 270 0 min 0 UV-I 0 W/m 27,4 km/h (4 Bft)
11.12.2010 21:50 5,0 C 92 % 1012,1 hPa 0,3 mm 8,0 km/h (2 Bft) W 270 0 min 0 UV-I 0 W/m 20,9 km/h (4 Bft)
11.12.2010 22:00 4,9 C 92 % 1012,0 hPa 0,0 mm 8,0 km/h (2 Bft) W 270 0 min 0 UV-I 0 W/m 19,3 km/h (3 Bft)
11.12.2010 22:10 4,9 C 92 % 1012,0 hPa 0,0 mm 9,7 km/h (2 Bft) W 270 0 min 0 UV-I 0 W/m 25,7 km/h (4 Bft)
11.12.2010 22:20 4,9 C 92 % 1012,0 hPa 0,0 mm 9,7 km/h (2 Bft) W 270 0 min 0 UV-I 0 W/m 27,4 km/h (4 Bft)
11.12.2010 22:30 4,9 C 92 % 1012,1 hPa 0,0 mm 11,3 km/h (2 Bft) W 270 0 min 0 UV-I 0 W/m 29,0 km/h (5 Bft)
11.12.2010 22:40 4,9 C 92 % 1011,9 hPa 0,0 mm 8,0 km/h (2 Bft) W 270 0 min 0 UV-I 0 W/m 20,9 km/h (4 Bft)
11.12.2010 22:50 4,9 C 92 % 1011,6 hPa 0,3 mm 11,3 km/h (2 Bft) W 270 0 min 0 UV-I 0 W/m 25,7 km/h (4 Bft)
11.12.2010 23:00 4,9 C 92 % 1011,3 hPa 0,0 mm 11,3 km/h (2 Bft) W 270 0 min 0 UV-I 0 W/m 33,8 km/h (5 Bft)
11.12.2010 23:10 4,8 C 92 % 1011,3 hPa 0,0 mm 9,7 km/h (2 Bft) W 270 0 min 0 UV-I 0 W/m 24,1 km/h (4 Bft)
11.12.2010 23:20 4,8 C 92 % 1011,1 hPa 0,0 mm 8,0 km/h (2 Bft) W 270 0 min 0 UV-I 0 W/m 22,5 km/h (4 Bft)
11.12.2010 23:30 4,7 C 91 % 1010,9 hPa 0,0 mm 8,0 km/h (2 Bft) W 270 0 min 0 UV-I 0 W/m 24,1 km/h (4 Bft)
11.12.2010 23:40 4,7 C 91 % 1010,7 hPa 0,0 mm 8,0 km/h (2 Bft) W 270 0 min 0 UV-I 0 W/m 20,9 km/h (4 Bft)
11.12.2010 23:50 4,7 C 92 % 1010,7 hPa 0,0 mm 8,0 km/h (2 Bft) W 270 0 min 0 UV-I 0 W/m 19,3 km/h (3 Bft)
_ Min-Zeit 00:00 23:30 23:40 - 00:50 - - - - - 17:30
Minimum _ 3,2 C 91 % 1010,7 hPa - 6,4 km/h (2 Bft) - - - - - 16,1 km/h (3 Bft)
_ Max-Zeit 15:10 11:10 00:00 00:00 11:10 - - 00:00 00:00 11:50 11:50
Maximum _ 5,5 C 95 % 1019,0 hPa 0,5 mm 14,9 km/h
W-NW (3 Bft)
- - 0 min 0 UV-I 52 W/m 33,8 km/h
W (5 Bft)
Durchschnitt _ 4,8 C 94 % 1015,0 hPa #9,4 mm 10,2 km/h (2 Bft) W - #0 min. 0 UV-I 23 W/m 26,0 km/h (4 Bft)